Dunkirk, NY

3:23 AM EDT on April 24, 2018 (GMT -0400)
Chautauqua County-Dunkirk

Weather History for KDKK - November, 2012

Change the Weather History Date:

Monday, November 19, 2012

  Actual Average Record
Temperature  
Mean Temperature 40 °F -  
Max Temperature 51 °F 47 °F 73 °F (1985)
Min Temperature 28 °F 35 °F 12 °F (2014)
Degree Days  
Heating Degree Days 26    
Moisture  
Dew Point 32 °F    
Average Humidity 75    
Maximum Humidity 92    
Minimum Humidity 56    
Precipitation  
Precipitation 0.00 in - - ()
Sea Level Pressure  
Sea Level Pressure 30.37 in    
Wind  
Wind Speed 5 mph (SE)    
Max Wind Speed 12 mph    
Max Gust Speed -    
Visibility 9 miles    
Events      
Averages and records for this station are not official NWS values.
T = Trace of Precipitation, MM = Missing Value Source: NWS Daily Summary

Daily Weather History Graph

Daily Weather History Graph

Search for Another Location

Airport or City:

Astronomy

Nov. 19, 2012 Rise Set
Actual Time 7:13 AM EST 4:51 PM EST
Civil Twilight 6:43 AM EST 5:21 PM EST
Nautical Twilight 6:08 AM EST 5:56 PM EST
Astronomical Twilight 5:35 AM EST 6:29 PM EST
Moon 12:12 PM EST (11/19) 11:19 PM EST (11/19)
Length of Visible Light 10h 38m
Length of Day
9h 37m
Waxing Crescent, 40% of the Moon is Illuminated
Nov 19
Waxing Crescent
Nov 20
First Quarter
Nov 28
Full
Dec 6
Last Quarter
Dec 13
New

Hourly Weather History & Observations

Time (EST) Temp. Windchill Dew Point Humidity Pressure Visibility Wind Dir Wind Speed Gust Speed Precip Events Conditions
12:53 AM 43.0 °F 37.7 °F 28.9 °F 58% 30.46 in 10.0 mi South 9.2 mph - N/A   Clear
1:53 AM 43.0 °F 36.8 °F 28.9 °F 58% 30.46 in 10.0 mi South 11.5 mph - N/A   Clear
2:53 AM 42.1 °F 36.1 °F 30.0 °F 62% 30.46 in 10.0 mi South 10.4 mph - N/A   Clear
3:53 AM 37.0 °F 34.5 °F 28.0 °F 70% 30.45 in 10.0 mi SE 3.5 mph - N/A   Clear
4:53 AM 32.0 °F - 27.0 °F 82% 30.45 in 9.0 mi Calm Calm - N/A   Clear
5:53 AM 32.0 °F - 27.0 °F 82% 30.46 in 8.0 mi Calm Calm - N/A   Clear
6:53 AM 28.9 °F - 27.0 °F 92% 30.46 in 8.0 mi Calm Calm - N/A   Clear
7:53 AM 30.9 °F - 27.0 °F 85% 30.45 in 7.0 mi Calm Calm - N/A   Clear
8:53 AM 42.1 °F - 34.0 °F 73% 30.44 in 8.0 mi Calm Calm - N/A   Clear
9:53 AM 46.0 °F 41.9 °F 33.1 °F 61% 30.43 in 10.0 mi SSW 8.1 mph - N/A   Clear
10:53 AM 48.0 °F - 34.0 °F 58% 30.42 in 10.0 mi SSW 8.1 mph - N/A   Clear
11:53 AM 51.1 °F - 36.0 °F 56% 30.38 in 10.0 mi NNE 5.8 mph - N/A   Clear
12:53 PM 48.9 °F - 37.0 °F 64% 30.36 in 10.0 mi NNW 6.9 mph - N/A   Clear
1:53 PM 48.9 °F - 37.9 °F 66% 30.34 in 10.0 mi NNW 9.2 mph - N/A   Clear
2:53 PM 46.9 °F - 37.0 °F 68% 30.33 in 9.0 mi NNE 4.6 mph - N/A   Clear
3:53 PM 46.9 °F - 36.0 °F 66% 30.32 in 10.0 mi Calm Calm - N/A   Clear
4:53 PM 44.1 °F - 35.1 °F 71% 30.32 in 10.0 mi Calm Calm - N/A   Clear
5:53 PM 35.1 °F - 32.0 °F 89% 30.33 in 10.0 mi Calm Calm - N/A   Clear
6:53 PM 33.1 °F - 30.0 °F 89% 30.32 in 9.0 mi Calm Calm - N/A   Clear
7:53 PM 34.0 °F - 30.9 °F 89% 30.29 in 9.0 mi Calm Calm - N/A   Clear
8:53 PM 34.0 °F 31.0 °F 30.9 °F 89% 30.27 in 9.0 mi ESE 3.5 mph - N/A   Clear
9:53 PM 33.1 °F - 30.9 °F 92% 30.26 in 9.0 mi Calm Calm - N/A   Clear
10:53 PM 35.1 °F - 32.0 °F 89% 30.25 in 10.0 mi Calm Calm - N/A   Clear
11:53 PM 34.0 °F 31.0 °F 32.0 °F 92% 30.23 in 9.0 mi SE 3.5 mph - N/A   Clear